{"data":{"norad_id":68362,"epoch":"2026-05-25T03:44:47.855616Z","epoch_age_seconds":51630,"freshness":"FRESH","line1":"1 68362U 26061C   26145.15610944  .00035024  00000+0  37813-3 0  9996","line2":"2 68362  82.2972  38.4150 0002985 136.5478 223.6015 15.63466582  9897","mean_motion":15.63466582,"eccentricity":0.0002985,"inclination_deg":82.2972,"raan_deg":38.415,"arg_perigee_deg":136.5478,"mean_anomaly_deg":223.6015,"bstar":0.00037813,"rev_number":989,"period_min":92.103023919957,"perigee_km":375.63584813038,"apogee_km":379.66905443279,"semimajor_km":6755.7894512816,"source":"CELESTRAK","updated_at":"2026-05-25T13:38:07.764002Z"}}